STARLINK-34249, 65376

Orbit data source: Space-Track

STARLINK-34249, 65376 is a payload satellite owned by SpaceX/Seattle (US) in LEO that was launched on Thu, 28 Aug 2025 UTC via an FALCON 9 launch vehicle from the Air Force Eastern Test Range (AFETR). Payload-class satellites include a variety of spacecraft equipped with specific instruments for various scientific and technological missions. These include communications satellites like Starlink; space stations such as the ISS; scientific satellites like the Hubble; Earth observation satellites from companies like Planet Labs, Umbra, and HawkEye 360; GPS; miniature CubeSats for education and research; and military/defense satellites.

Loading next visibility...
Identifier
65376, 2025-190AB
Orbit
LEO
Country
Flag of USUS
Related business
Manufacturer
SpaceX/Seattle
Mission
Operational Commercial Communications
Bus & Motor
STARLINK V2MO, Unknown motor
Mass
575 kg wet, ~530 kg dry
Launch date (UTC)
2025-08-28 (7 months ago)
Launch vehicle
FALCON 9
Launch site
Air Force Eastern Test Range (AFETR)
Object type
Payload
Rocket body
Debris
Shape & HBR
Box + 2 Pan, 17.7 m
Radar Cross Section
36.964 m², Large (>1 m²)

Expand to show TLE details & history
Last TLE update: 10 hours ago

TLE from 10 hours ago
0 STARLINK-34249
1 65376U 25190AB  26094.17016484  .00041252  00000-0  13971-2 0  9993
2 65376  53.1591  50.0056 0001681  97.7649 262.3543 15.30201715 34071
Epoch: 2026-04-04T04:05Z
TLE epoch observation values (Epoch: 2026-04-04T04:05:02.242Z)
Latitude
0.00002°
Longitude
156.25249°
Altitude
476.263 km
Speed
7.629 km/s
True Right ascension
03h 20m 01s
True Declination
0° 00' 00"
Sunlit
Object was in daylight at epoch
Visualization orbit readout
Latitude
Unknown
Longitude
Unknown
Altitude
Unknown
Speed
Unknown
Apparent Right ascension
Unknown
Apparent Declination
Unknown
Sunlit
N/A
Visualization observer readout
Local Sidereal Time
19:33:03
Azimuth
Unknown
Elevation
Unknown
Doppler factor
Unknown
Orbital elements
Apogee altitude
476.619 km
Perigee altitude
474.314 km
Semi-major axis
6,853.604 km
Eccentricity
0.00017
Inclination
53.1591°
RAAN
50.0056°
Arg. of periapsis
97.7649°
True anomaly
262.33521°
Mean anomaly
262.3543°
Eccentric anomaly
262.34475°
Mean motion
3.82529 °/min
Orbital period
94.11 mins
BSTAR
0.0013971
Loading maneuver chart data...
Computing Atmospheric mass density...
Loading historical data...
Loading historical data...
Loading historical data...
Loading historical data...
Loading historical data...
Loading historical data...
Loading historical data...

Documentation

Showing up to 5 results
|